DateTimeUTC,F1_A11,F1_S11,BsB_S11,BsG_S11,BsR_S11,BbsB_S11,BbsG_S11,BbsR_S11,BaB_A11,BaG_A11,BaR_A11,Tu_S11,T_S11,Uu_S11,U_S11,P_S11,T1_A11
2021-08-10T05:00:00Z,00040200,20000000,,,,,,,-000.39,-000.02,-000.15,18.2,25.1,04.6,03.0,0671.5,31.0
2021-08-10T05:01:00Z,00040200,20000000,,,,,,,0000.05,0000.08,-000.11,18.2,25.0,04.6,03.0,0671.5,30.9
2021-08-10T05:02:00Z,00040200,20000000,,,,,,,0000.12,0000.01,0000.30,18.2,25.0,04.5,03.0,0671.5,30.9
2021-08-10T05:03:00Z,00040200,60000000,,,,,,,0000.41,0000.43,0000.21,18.2,25.0,04.5,03.0,0671.5,30.9
2021-08-10T05:04:00Z,00040200,40000000,0001.38,0001.22,0000.52,0000.54,0000.19,0000.45,0000.16,-000.13,0000.31,18.2,24.8,04.7,03.1,0672.4,30.9
2021-08-10T05:05:00Z,00040200,00000000,0001.46,0000.99,0000.54,-000.01,0000.30,0000.37,0000.36,0000.34,0000.28,18.2,24.7,04.7,03.2,0672.5,30.9
2021-08-10T05:06:00Z,00040200,00000000,0002.01,0001.26,0000.82,0000.72,0000.44,-000.10,-000.26,-000.07,-000.17,18.2,24.7,04.7,03.1,0672.5,30.9
2021-08-10T05:07:00Z,00040200,00000000,0000.73,0001.04,0000.94,0000.25,0000.33,-000.05,0000.34,0000.07,0000.10,18.2,24.6,04.7,03.1,0672.5,30.9
2021-08-10T05:08:00Z,00040200,00000000,0001.41,0001.21,0000.91,0000.07,0000.20,0000.16,-000.08,0000.02,0000.59,18.2,24.7,04.7,03.2,0672.5,30.9
2021-08-10T05:09:00Z,00040200,00000000,0001.30,0001.17,0000.94,-000.01,0000.57,0000.32,0000.16,0000.54,-000.15,18.3,24.7,04.7,03.2,0672.5,31.0
2021-08-10T05:10:00Z,00040200,00000000,0002.37,0001.03,0000.71,-000.56,0000.41,0000.30,-000.13,-000.03,0000.10,18.3,24.7,04.6,03.1,0672.5,31.0
2021-08-10T05:11:00Z,00040200,00000000,0002.02,0001.20,0000.60,-000.25,0000.31,-000.09,-000.18,-000.02,0000.34,18.4,24.8,04.6,03.1,0672.5,31.0
2021-08-10T05:12:00Z,00040200,00000000,0001.08,0001.08,0000.92,-000.23,0000.52,0000.35,0000.45,0000.35,0000.07,18.5,24.8,04.7,03.2,0672.5,31.0
2021-08-10T05:13:00Z,00040200,00000000,0001.73,0001.35,0000.42,0000.22,0000.20,-000.12,0000.46,-000.08,0000.50,18.5,24.8,04.6,03.1,0672.5,31.0
2021-08-10T05:14:00Z,00040200,00000000,0001.01,0000.89,0000.90,-000.16,0000.39,0000.19,0000.09,0000.22,0000.14,18.4,24.8,04.6,03.1,0672.5,31.0
2021-08-10T05:15:00Z,00040200,00000000,0002.10,0001.18,0000.69,-000.01,0000.65,0000.13,0000.03,-000.08,0000.25,18.4,24.8,04.6,03.1,0672.5,31.0
2021-08-10T05:16:00Z,00040200,00000000,0000.81,0001.23,0001.01,0000.32,0000.20,0000.46,0000.12,0000.08,-000.04,18.4,24.7,04.6,03.1,0672.6,31.0
2021-08-10T05:17:00Z,00040200,00000000,0001.04,0001.60,0001.06,-000.00,0000.09,0000.21,-000.06,0000.35,0000.47,18.3,24.7,04.5,03.1,0672.6,30.9
2021-08-10T05:18:00Z,00040200,00000000,0000.37,0001.17,0000.85,-000.48,0000.24,0000.14,0000.39,0000.35,-000.18,18.3,24.7,04.7,03.2,0672.6,30.9
2021-08-10T05:19:00Z,00040200,00000000,0000.62,0001.22,0000.45,-000.23,0000.26,0000.01,0000.18,0000.05,0000.40,18.3,24.7,04.8,03.2,0672.6,30.9
2021-08-10T05:20:00Z,00040200,00000000,0001.77,0001.18,0000.87,-000.01,0000.45,0000.04,0000.12,0000.03,0000.03,18.2,24.6,04.8,03.2,0672.6,30.9
2021-08-10T05:21:00Z,00040200,00000000,0001.19,0001.12,0001.07,-000.07,0000.32,0000.17,0000.23,0000.51,0000.38,18.2,24.6,04.8,03.2,0672.6,30.9
2021-08-10T05:22:00Z,00040200,00000000,0001.40,0001.19,0000.70,-000.03,0000.31,0000.24,-000.02,-000.16,0000.32,18.2,24.6,04.9,03.3,0672.5,30.9
2021-08-10T05:23:00Z,00040200,00000000,0001.77,0000.80,0000.86,-000.03,0000.45,0000.01,0000.36,0000.55,0000.27,18.3,24.6,04.9,03.3,0672.5,31.0
2021-08-10T05:24:00Z,00040200,00000000,0001.63,0001.43,0000.95,-000.63,0000.41,-000.01,0000.38,0000.31,0000.29,18.3,24.7,05.0,03.4,0672.5,31.0
2021-08-10T05:25:00Z,00040200,00000000,0001.80,0001.48,0001.03,0000.32,0000.55,0000.23,0000.08,0000.12,0000.32,18.4,24.7,04.9,03.3,0672.6,31.0
2021-08-10T05:26:00Z,00040200,00000000,0002.06,0001.26,0001.09,-000.49,0000.36,0000.30,-000.13,-000.02,-000.28,18.5,24.8,05.0,03.4,0672.6,31.0
2021-08-10T05:27:00Z,00040200,00000000,0001.19,0001.06,0000.80,0000.55,0000.03,0000.36,0000.49,0000.49,0000.36,18.5,24.8,04.9,03.4,0672.6,31.0
2021-08-10T05:28:00Z,00040200,00000000,0001.53,0001.12,0001.17,0000.19,0000.73,-000.28,-000.03,0000.05,0000.11,18.5,24.8,04.9,03.3,0672.6,31.0
2021-08-10T05:29:00Z,00040200,00000000,0001.42,0001.06,0000.90,0000.29,0000.19,-000.05,0000.27,0000.33,0000.47,18.5,24.8,04.9,03.3,0672.6,31.0
2021-08-10T05:30:00Z,00040200,00000000,0001.50,0001.22,0001.30,0000.13,0000.19,0000.33,0000.45,0000.07,0000.48,18.5,24.8,04.9,03.3,0672.6,31.0
2021-08-10T05:31:00Z,00040200,00000000,0001.97,0001.21,0000.69,0000.19,0000.06,0000.27,0000.35,0000.39,0000.13,18.5,24.7,04.9,03.3,0672.6,31.0
2021-08-10T05:32:00Z,00040200,00000000,0001.25,0001.27,0000.80,-000.70,0000.16,-000.12,-000.35,-000.01,0000.13,18.4,24.7,05.0,03.4,0672.6,31.0
2021-08-10T05:33:00Z,00040200,00000000,0001.08,0001.06,0001.07,0000.17,0000.42,-000.02,0000.79,0000.40,0000.24,18.4,24.7,05.0,03.4,0672.6,31.0
2021-08-10T05:34:00Z,00040200,00000000,0001.24,0001.41,0000.78,0000.47,0000.40,0000.29,0000.26,-000.04,0000.78,18.3,24.7,05.0,03.4,0672.6,30.9
2021-08-10T05:35:00Z,00040200,00000000,0001.72,0001.33,0000.87,-000.27,0000.42,-000.08,0000.24,0000.61,-000.22,18.3,24.6,05.1,03.5,0672.5,30.9
2021-08-10T05:36:00Z,00040200,00000000,0002.09,0001.37,0000.75,0000.40,0000.78,-000.04,0000.07,0000.30,0000.52,18.3,24.6,05.1,03.5,0672.5,30.9
2021-08-10T05:37:00Z,00040200,00000000,0001.68,0001.44,0001.00,0000.26,0000.16,-000.28,0000.40,0000.40,0000.28,18.3,24.6,05.1,03.4,0672.6,30.9
2021-08-10T05:38:00Z,00040200,00000000,0001.87,0001.30,0001.28,0000.05,0000.33,0000.24,-000.00,0000.21,0000.08,18.3,24.6,05.1,03.5,0672.6,30.9
2021-08-10T05:39:00Z,00040200,00000000,0001.91,0001.46,0001.03,0000.17,0000.18,0000.38,0000.24,-000.26,0000.16,18.4,24.7,05.1,03.5,0672.6,31.0
2021-08-10T05:40:00Z,00040200,00000000,0001.45,0001.24,0000.96,-000.46,0000.35,0000.20,0000.28,0000.30,0000.46,18.4,24.7,05.1,03.5,0672.6,31.0
2021-08-10T05:41:00Z,00040200,00000000,0001.71,0001.63,0000.78,-000.21,0000.28,0000.29,-000.02,0000.08,0000.31,18.5,24.7,05.1,03.5,0672.6,31.0
2021-08-10T05:42:00Z,00040200,00000000,0001.45,0001.33,0000.61,0000.44,0000.19,0000.18,-000.03,0000.13,-000.09,18.5,24.8,05.1,03.5,0672.7,31.0
2021-08-10T05:43:00Z,00040200,00000000,0001.21,0001.48,0001.12,-000.24,0000.55,0000.14,0000.54,0000.26,0000.55,18.5,24.8,05.1,03.5,0672.7,31.0
2021-08-10T05:44:00Z,00040200,00000000,0000.95,0001.20,0001.20,-000.54,0000.56,0000.27,0000.25,0000.45,-000.05,18.5,24.8,05.2,03.5,0672.7,31.0
2021-08-10T05:45:00Z,00040200,00000000,0002.11,0000.97,0000.94,0000.60,0000.69,0000.06,0000.24,-000.05,0000.18,18.4,24.7,05.1,03.5,0672.7,31.0
2021-08-10T05:46:00Z,00040200,00000000,0001.54,0001.22,0001.00,0000.10,0000.11,0000.38,-000.01,0000.45,0000.23,18.4,24.7,05.2,03.5,0672.7,31.0
2021-08-10T05:47:00Z,00040200,00000000,0001.86,0001.70,0000.89,0000.04,0000.52,0000.32,0000.05,0000.18,0000.45,18.4,24.7,05.1,03.5,0672.7,30.9
2021-08-10T05:48:00Z,00040200,00000000,0001.98,0001.28,0000.99,-000.00,0000.31,0000.17,0000.63,0000.49,0000.25,18.3,24.6,05.2,03.5,0672.7,30.9
2021-08-10T05:49:00Z,00040200,00000000,0002.52,0001.64,0001.06,0000.29,0000.14,0000.20,-000.22,-000.26,0000.08,18.3,24.6,05.2,03.5,0672.7,30.9
2021-08-10T05:50:00Z,00040200,00000000,0001.30,0001.49,0001.08,0000.01,-000.08,0000.03,0000.45,0000.39,0000.65,18.3,24.6,05.2,03.5,0672.7,30.9
2021-08-10T05:51:00Z,00040200,00000000,0001.50,0001.35,0001.14,0000.14,0000.12,-000.06,0000.38,0000.38,-000.39,18.2,24.6,05.2,03.5,0672.6,30.9
2021-08-10T05:52:00Z,00040200,00000000,0001.50,0001.40,0001.16,0000.13,0000.36,-000.05,0000.12,0000.14,0000.40,18.2,24.6,05.2,03.6,0672.6,30.9
2021-08-10T05:53:00Z,00040200,00000000,0001.43,0001.44,0000.88,0000.58,0000.39,0000.08,-000.24,-000.18,-000.00,18.3,24.6,05.2,03.5,0672.6,30.9
2021-08-10T05:54:00Z,00040200,00000000,0001.12,0001.37,0001.14,-000.38,0000.49,-000.13,0000.60,0000.29,0000.50,18.3,24.6,05.2,03.5,0672.7,31.0
2021-08-10T05:55:00Z,00040200,00000000,0001.92,0001.00,0001.36,0000.73,0000.43,0000.38,-000.20,-000.03,-000.10,18.4,24.7,05.2,03.6,0672.7,31.0
2021-08-10T05:56:00Z,00040200,00000000,0001.58,0001.33,0000.65,-000.05,0000.48,-000.11,0000.30,0000.29,0000.63,18.5,24.7,05.2,03.5,0672.7,31.0
2021-08-10T05:57:00Z,00040200,40000000,,,,,,,-000.33,0000.44,-000.45,18.5,24.8,04.9,03.3,0672.6,31.0
2021-08-10T05:58:00Z,00040200,60000000,,,,,,,0000.30,-000.40,0000.20,18.3,24.9,05.0,03.3,0671.7,31.0
2021-08-10T05:59:00Z,00040200,20000000,,,,,,,0000.30,0000.05,0000.44,18.3,25.0,05.0,03.3,0671.7,31.0
